Regional Weather Roundup
Issued by NWS

Home | Current Version | Previous Version | Graphics & Text | Print | Product List | Glossary On
Versions: 1 2 3 4 5 6 7 8 9 10 11 12 13 14 15 16 17 18 19 20 21 22 23 24 25 26 27 28 29 30 31 32 33 34 35 36 37 38 39 40 41 42 43 44 45 46 47 48 49 50
000
ASUS43 KFSD 301410
RWRSD

WEATHER ROUNDUP FOR SOUTH DAKOTA
NATIONAL WEATHER SERVICE SIOUX FALLS SD
800 AM CST FRI JAN 30 2015

NOTE: "FAIR" INDICATES FEW OR NO CLOUDS BELOW 12,000 FEET WITH NO
SIGNIFICANT WEATHER AND/OR OBSTRUCTIONS TO VISIBILITY.


SDZ001>005-009-010-012>017-301500-
NORTHWEST AND NORTH CENTRAL SOUTH DAKOTA

CITY           SKY/WX    TMP DP  RH WIND       PRES   REMARKS
BUFFALO          N/A     22  16  78 SW5       30.10F WCI  16
FAITH            N/A     21  16  81 SW6       30.19S WCI  13
MOBRIDGE       CLEAR     21  18  88 SE9       30.22F WCI  11
$$

SDZ012>016-024>037-041>051-057-063-072>074-301500-
SOUTHWEST AND SOUTH CENTRAL SOUTH DAKOTA

CITY           SKY/WX    TMP DP  RH WIND       PRES   REMARKS
RAPID CTY ARPT MOCLDY    20  15  81 CALM      30.17F
PIERRE         CLEAR     21  18  88 SE10      30.26F WCI  10
CUSTER         MOCLDY    32  20  61 W5        30.16F WCI  27
ELLSWORTH AFB  MOCLDY    24  17  76 NW2       30.16F
PHILIP         MOCLDY    21  15  78 CALM      30.21F
PINE RIDGE     CLOUDY    31  20  63 S10       30.21F WCI  22
WINNER         FAIR      26  20  77 SE8       30.29F WCI  18
$$

SDZ004>011-016>023-039-040-301500-
NORTHEAST SOUTH DAKOTA

CITY           SKY/WX    TMP DP  RH WIND       PRES   REMARKS
ABERDEEN       CLEAR     19  15  84 S12       30.34F WCI   7
WATERTOWN      PTCLDY    17  14  88 S12       30.36F WCI   4
SISSETON         N/A     14  12  92 SE9       30.40F WCI   2
$$

SDZ017-020-022-023-036>040-048>070-301500-
SOUTHEAST SOUTH DAKOTA

CITY           SKY/WX    TMP DP  RH WIND       PRES   REMARKS
SIOUX FALLS    MOCLDY    20  16  84 S8        30.46S WCI  10
HURON          CLEAR     19  16  88 SE12      30.40S WCI   7
CHAMBERLAIN    CLEAR     19  17  93 SE8       30.32F WCI   9
MITCHELL       CLEAR     19  17  92 SE9       30.43F WCI   8
YANKTON        CLEAR     16  12  86 E6        30.48S WCI   7
$$

ABBREVIATIONS USED IN REMARKS
   TC - TEMPERATURE IN CELSIUS
  WCI - WIND CHILL INDEX
   HX - HEAT INDEX
  VSB - VISIBILITY




USA.gov is the U.S. government's official web portal to all federal, state and local government web resources and services.